Tracking 19193 objects as of 24-Jun-2018
HD Live streaming from Space Station
objects crossing your sky now

FENGYUN 1C DEB

Track FENGYUN 1C DEB now!
10-day predictions


NORAD ID: 31752
Int'l Code: 1999-025CFB
Perigee: 675.5 km
Apogee: 1,271.6 km
Inclination: 98.9 °
Period: 104.4 minutes
Semi major axis: 7344 km
RCS: 0.0083 m2 (small)
Launch date: May 10, 1999
Source: People's Republic of China (PRC)
Launch site: Taiyaun Space Center, China (TSC)

Note: This is SATELLITE DEBRIS
aabbcc
Your satellite tracking list
Your tracking list is empty




NASA's NSSDC Master Catalog

Two Line Element Set (TLE):
1 31752U 99025CFB 18173.21239812 +.00000172 +00000-0 +11131-3 0  9991
2 31752 098.9245 322.4062 0405806 126.6173 237.3027 13.79288371558523
Source of the keplerian elements: AFSPC